User: anonymous
Location: Columbia
(38.9520°N, 92.3340°W)
Time: 06:20:11
(UTC-05:00)
Language:

Cosmos 158 Rocket - Orbit

View from above orbital plane
View from above orbital plane
View from above satellite
View from above satellite

Ground track
Ground track

The orbit data is extracted from the following two-line orbital elements,

1 02802U 67045B   14292.79487344  .00000378  00000-0  11725-3 0  5935
2 02802 074.0124 174.6104 0065832 102.7230 258.1296 14.43257805488815
Epoch (UTC): 19 October 2014 19:04:37
Eccentricity: 0.0065832
inclination: 74.0124°
perigee height: 701 km
apogee height: 794 km
right ascension of ascending node: 174.6104°
argument of perigee: 102.7230°
revolutions per day: 14.43257805
mean anomaly at epoch: 258.1296°
orbit number at epoch: 48881

The dashed part of the orbit path shows where the satellite is in the earth's shadow,  

DLR